Regional Weather Roundup
Issued by NWS

Home | Current Version | Previous Version | Text Only | Print | Product List | Glossary Off
Versions: 1 2 3 4 5 6 7 8 9 10 11 12 13 14 15 16 17 18 19 20 21 22 23 24 25 26 27 28 29 30 31 32 33 34 35 36 37 38 39 40 41 42 43 44 45 46 47 48 49 50

000
ASUS43 KDMX 191906
RWRIA

WEATHER ROUNDUP FOR IOWA
NATIONAL WEATHER SERVICE DES MOINES IA
200 PM CDT THU OCT 19 2017

NOTE: "FAIR" INDICATES FEW OR NO CLOUDS BELOW 12,000 FEET WITH NO
SIGNIFICANT WEATHER AND/OR OBSTRUCTIONS TO VISIBILITY.

* - THESE STATIONS ARE NOT NWS STATIONS...THUS NOT UNDER NWS
QUALITY CONTROL.  THEY ALSO DO NOT REPORT WEATHER SUCH
AS PRECIPITATION OR FOG.

IAZ001>003-012>014-020>022-031>034-043>046-192000-
   NORTHWEST IOWA

CITY           SKY/WX    TMP DP  RH WIND       PRES   REMARKS
CARROLL *        N/A     81  55  41 SE15      30.05F HAZE    HX  80
CHEROKEE *       N/A     72  48  42 S12G18    30.02F
DENISON *        N/A     73  50  43 S12       30.05F
LE MARS *        N/A     75  48  38 S16       29.99F
ORANGE CITY *    N/A     73  48  40 S13G22    30.00F
SHELDON *        N/A     73  45  35 S15G22    29.99F
SIOUX CITY       N/A     73  50  44 S15       30.00F
SPENCER          N/A     73  43  33 S18G26    30.03F
STORM LAKE *     N/A     72  43  35 S14G21    30.04F
$$

IAZ055>058-069>071-079>083-090>094-192000-
   SOUTHWEST IOWA

CITY           SKY/WX    TMP DP  RH WIND       PRES   REMARKS
ATLANTIC *       N/A     73  52  46 S10       30.04F
AUDUBON *        N/A     73  54  49 S8        30.06F
CLARINDA *       N/A     75  54  46 S10       30.07F
COUNCIL BLFS *   N/A     73  55  53 S10       30.03F
CRESTON *        N/A     73  54  49 S14       30.08F
HARLAN  *        N/A     75  52  43 SE10G17   30.07F
LAMONI           N/A     72  55  55 VRB7      30.08F
RED OAK *        N/A     75  55  50 SE10G21   30.04F
SHENANDOAH *     N/A     77  54  44 S8G14     30.04F
$$

IAZ047>049-059>061-072>074-084-192000-
   CENTRAL IOWA

CITY           SKY/WX    TMP DP  RH WIND       PRES   REMARKS
AMES             N/A     72  44  36 SE15      30.08F
ANKENY *         N/A     73  46  38 SE9       30.09F
BOONE *          N/A     73  41  31 SE16G22   30.06F
CHARITON *       N/A     73  54  49 SE7G14    30.08F
DES MOINES       N/A     74  48  39 SE14      30.07F
KNOXVILLE *      N/A     73  50  43 SE9       30.07F
MARSHALLTOWN     N/A     72  38  29 SE15      30.09F
NEWTON *         N/A     73  45  35 SE16G24   30.09F
PELLA *          N/A     74  47  38 SE8       30.10F
PERRY *          N/A     75  39  27 SE12      30.06F
$$

IAZ004>006-015-016-023>025-035-036-192000-
   NORTH CENTRAL IOWA

CITY           SKY/WX    TMP DP  RH WIND       PRES   REMARKS
ALGONA *         N/A     72  39  30 S17       30.05F
CLARION *        N/A     73  36  25 SE18      30.07F
ESTHERVILLE      N/A     69  39  33 S15G25    30.03F
FORT DODGE *     N/A     71  42  35 SE10      30.07F
MASON CITY       N/A     68  32  26 SE17G23   30.09F
FOREST CITY *    N/A     68  32  26 S15       30.07F
WEBSTER CITY *   N/A     73  39  29 S14G22    30.05F
IOWA FALLS *     N/A     71  35  26 SE12      30.10F
$$

IAZ007>011-017>019-026>030-037>042-050>054-066-192000-
   NORTHEAST IOWA

CITY           SKY/WX    TMP DP  RH WIND       PRES   REMARKS
CEDAR RAPIDS     N/A     71  33  24 SE10      30.12F
CHARLES CITY *   N/A     70  30  23 S12G21    30.10F
CLINTON *        N/A     71  35  26 SE8       30.15F
DECORAH *        N/A     70  32  24 S9        30.10F
DUBUQUE          N/A     68  33  27 S10       30.15F
MONTICELLO *     N/A     72  30  21 SE12      30.13F
OELWEIN *        N/A     70  30  23 S13G18    30.12F
WATERLOO         N/A     68  32  26 SE10      30.10F
$$

IAZ064-065-067-068-078-192000-
   EAST CENTRAL IOWA

CITY           SKY/WX    TMP DP  RH WIND       PRES   REMARKS
DAVENPORT        N/A     71  33  24 S8        30.16F
IOWA CITY        N/A     73  37  27 SE9       30.14F
MUSCATINE *      N/A     73  43  33 SE5G13    30.13F
QUAD CITIES      N/A     73  35  25 SE9       30.14F
$$

IAZ062-063-075>077-085>089-095>099-192000-
   SOUTHEAST IOWA

CITY           SKY/WX    TMP DP  RH WIND       PRES   REMARKS
BURLINGTON       N/A     74  54  49 SE5       30.12F
FAIRFIELD *      N/A     73  52  46 SE8G15    30.11F
FORT MADISON *   N/A     75  54  46 S8        30.13F
KEOKUK *         N/A     75  54  46 SE7       30.12F
OSKALOOSA *      N/A     74  50  42 SE10G16   30.10F
OTTUMWA          N/A     72  53  51 SE10      30.10F
WASHINGTON *     N/A     75  50  41 SE9       30.13F
$$

ABBREVIATIONS USED IN REMARKS
   TC - TEMPERATURES IN CELSIUS
  WCI - WIND CHILL INDEX
   HX - HEAT INDEX
  VSB - VISIBILITY
$$




USA.gov is the U.S. government's official web portal to all federal, state and local government web resources and services.